Overview Statistics Trail Chart Weather Telemetry Raw packets
 

This is the latest recevied weather packets stored in our database for station/object KJ4UBX-13. If no packets are shown the sender has not sent any weather packets the latest 10 day(s).

<< 51 52 53 54 55 56 57 >>
Time Temp. Humidity Pressure Rain* Wind** Luminosity Snow
1787864673 26.67° C 64% 1014.3 hPa - - - -
1787864092 26.11° C 60% 1014.3 hPa - - - -
1787863512 26.67° C 58% 1014.4 hPa - - - -
1787862932 27.22° C 59% 1014.5 hPa - - - -
1787862351 27.78° C 65% 1014.4 hPa - - - -
1787861771 28.33° C 74% 1014.3 hPa - - - -
1787861190 28.33° C 74% 1014.6 hPa - - - -
1787860609 28.33° C 74% 1014.5 hPa - - - -
1787860028 28.33° C 74% 1014.6 hPa - - - -
1787859447 28.33° C 74% 1014.4 hPa - - - -
1787858865 27.78° C 74% 1014.5 hPa - - - -
1787858284 27.78° C 74% 1014.4 hPa - - - -
1787857703 27.78° C 73% 1014.5 hPa - - - -
1787857121 27.78° C 74% 1014.5 hPa - - - -
1787856540 27.78° C 74% 1014.6 hPa - - - -
1787855959 27.22° C 72% 1014.7 hPa - - - -
1787855376 27.22° C 73% 1014.9 hPa - - - -
1787854796 27.22° C 73% 1014.8 hPa - - - -
1787854214 27.22° C 72% 1014.9 hPa - - - -
1787853634 27.22° C 71% 1015.1 hPa - - - -
1787853053 27.22° C 70% 1015.1 hPa - - - -
1787852471 27.22° C 70% 1015.1 hPa - - - -
1787851890 27.22° C 71% 1015 hPa - - - -
1787851310 27.22° C 70% 1015.1 hPa - - - -
1787850728 27.22° C 68% 1015.1 hPa - - - -

* Rain since midnight (hover to see other rain measurements)
** Current wind speed in m/s (hover to see current wind gust speed)